Location: Arthez
(43.0833°N, 0.2500°W)
Time: 22:56:59
(UTC+00:00)

deb Kosmos-970 - Pass Details

Date: 22 August 2022
Orbit: 900 x 1112 km, 65.8° (Epoch: 28 September)

Event Time Altitude Azimuth Distance (km) Brightness Sun altitude
Rises 23:22:33 0° 326° (NW) 3,937 ? -34.6°
Reaches altitude 10° 23:25:16 10° 326° (NW) 2,964 ? -34.7°
Enters shadow 23:30:54 59° 313° (NW) 1,229 ? -34.9°
